{"data":{"norad_id":48365,"intl_designator":"2021-038N","name":"STARLINK-2608","alt_names":[],"object_type":"PAYLOAD","status":"ACTIVE","operator":null,"country":"US","launch_date":"2021-05-04","launch_site_code":"AFETR","launch_vehicle":null,"mission":null,"orbit_class":"UNKNOWN","rcs_meters":null,"size_class":null,"mass_kg":null,"dimensions":null,"purposes":["comms"],"wikipedia_slug":null,"has_3d_model":false,"image_url":null,"decayed_at":null,"tle_current":{"epoch":"2026-05-25T00:07:43.890240Z","epoch_age_seconds":70790,"freshness":"FRESH","line1":"1 48365U 21038N   26145.00536910  .00003858  00000+0  13597-3 0  9993","line2":"2 48365  53.1601 352.9114 0001236  91.9609 268.1534 15.31714216278923","mean_motion":15.31714216,"eccentricity":0.0001236,"inclination_deg":53.1601,"raan_deg":352.9114,"arg_perigee_deg":91.9609,"mean_anomaly_deg":268.1534,"bstar":0.00013597,"rev_number":27892,"period_min":94.012315414849,"perigee_km":469.85110243831,"apogee_km":471.54413435598,"semimajor_km":6848.8346183971,"source":"CELESTRAK","updated_at":"2026-05-25T13:38:16.686753Z"}}}